| time (UTC) | temp C | wind direction | speed KPH | gust KPH | rain 1hr cm | rain 24hr cm | rain mn cm | humidity % | barometer mb |
| 20260503174114 | 16 | 108 | 8.0 | 12.9 | 0.00 | 0.03 | 0.03 | 50 | 1020.8 |
| 20260503173609 | 16 | 162 | 3.2 | 4.8 | 0.00 | 0.03 | 0.03 | 52 | 1020.8 |
| 20260503173106 | 16 | 169 | 3.2 | 4.8 | 0.00 | 0.03 | 0.03 | 52 | 1020.9 |
| 20260503172603 | 16 | 202 | 6.4 | 6.4 | 0.00 | 0.03 | 0.03 | 49 | 1020.9 |
| 20260503172100 | 16 | 356 | 3.2 | 6.4 | 0.00 | 0.03 | 0.03 | 50 | 1020.8 |
| 20260503171556 | 16 | 133 | 8.0 | 11.3 | 0.00 | 0.03 | 0.03 | 53 | 1020.8 |
| 20260503171054 | 16 | 248 | 4.8 | 6.4 | 0.00 | 0.03 | 0.03 | 50 | 1021.1 |
| 20260503170549 | 15 | 203 | 3.2 | 3.2 | 0.00 | 0.03 | 0.03 | 50 | 1020.9 |
| 20260503150943 | 15 | 208 | 6.4 | 9.7 | 0.00 | 0.03 | 0.03 | 54 | 1021.5 |
| 20260503150439 | 15 | 92 | 4.8 | 6.4 | 0.00 | 0.03 | 0.03 | 52 | 1021.4 |
| 20260503131326 | 12 | 148 | 6.4 | 11.3 | 0.00 | 0.03 | 0.03 | 62 | 1021.4 |
| 20260503130824 | 11 | 144 | 6.4 | 9.7 | 0.00 | 0.03 | 0.03 | 63 | 1021.3 |
| 20260503130321 | 11 | 213 | 6.4 | 9.7 | 0.00 | 0.03 | 0.03 | 63 | 1021.3 |
| 20260503110715 | 8 | 358 | 1.6 | 3.2 | 0.00 | 0.03 | 0.03 | 90 | 1019.4 |
| 20260503110212 | 8 | 183 | 1.6 | 3.2 | 0.00 | 0.03 | 0.03 | 91 | 1019.2 |
| 20260503100138 | 8 | 144 | 1.6 | 1.6 | 0.00 | 0.03 | 0.03 | 94 | 1017.9 |
| 20260503081527 | 8 | 114 | 0.0 | 0.0 | 0.00 | 0.00 | 0.00 | 93 | 1017.2 |
| 20260503081025 | 8 | 108 | 0.0 | 0.0 | 0.00 | 0.00 | 0.00 | 93 | 1016.9 |
| 20260503080520 | 8 | 63 | 1.6 | 1.6 | 0.00 | 0.00 | 0.00 | 93 | 1017.1 |
| 20260503072454 | 8 | 117 | 0.0 | 0.0 | 0.00 | 0.00 | 0.00 | 95 | 1016.7 |
| 20260503071951 | 8 | 111 | 0.0 | 0.0 | 0.00 | 0.00 | 0.00 | 95 | 1016.5 |
| 20260503071448 | 8 | 122 | 0.0 | 0.0 | 0.00 | 0.00 | 0.00 | 95 | 1016.6 |
| 20260503070944 | 8 | 110 | 0.0 | 0.0 | 0.00 | 0.00 | 0.00 | 95 | 1016.4 |
| 20260503070441 | 8 | 121 | 0.0 | 0.0 | 0.00 | 0.00 | 0.00 | 95 | 1016.3 |
| 20260503054855 | 9 | 116 | 0.0 | 0.0 | 0.00 | 0.00 | 0.00 | 93 | 1016.1 |
| 20260503054350 | 9 | 119 | 0.0 | 0.0 | 0.00 | 0.00 | 0.00 | 92 | 1015.9 |
| 20260503053849 | 10 | 123 | 0.0 | 0.0 | 0.00 | 0.00 | 0.00 | 92 | 1016.3 |
| 20260503053347 | 10 | 113 | 0.0 | 0.0 | 0.00 | 0.00 | 0.00 | 92 | 1016.1 |
| 20260503052842 | 10 | 119 | 0.0 | 0.0 | 0.00 | 0.00 | 0.00 | 91 | 1016.3 |
| 20260503052340 | 10 | 124 | 0.0 | 0.0 | 0.00 | 0.00 | 0.00 | 90 | 1016.1 |
| 20260503051836 | 10 | 124 | 0.0 | 0.0 | 0.00 | 0.00 | 0.00 | 90 | 1016.1 |
| 20260503051332 | 10 | 120 | 0.0 | 0.0 | 0.00 | 0.00 | 0.00 | 89 | 1016.2 |
| 20260503050829 | 10 | 118 | 0.0 | 0.0 | 0.00 | 0.00 | 0.00 | 88 | 1016.0 |
| 20260503050325 | 10 | 114 | 0.0 | 0.0 | 0.00 | 0.00 | 0.00 | 88 | 1016.2 |
| 20260503045823 | 10 | 120 | 0.0 | 0.0 | 0.00 | 0.00 | 0.00 | 88 | 1016.2 |
| 20260503045321 | 10 | 102 | 0.0 | 0.0 | 0.00 | 0.00 | 0.00 | 87 | 1016.3 |
| 20260503044817 | 10 | 135 | 0.0 | 0.0 | 0.00 | 0.00 | 0.00 | 88 | 1016.1 |
| 20260503044314 | 10 | 108 | 0.0 | 0.0 | 0.00 | 0.00 | 0.00 | 87 | 1016.1 |
| 20260503043811 | 10 | 111 | 0.0 | 0.0 | 0.00 | 0.00 | 0.00 | 87 | 1016.1 |
| 20260503043308 | 10 | 102 | 0.0 | 0.0 | 0.00 | 0.00 | 0.00 | 87 | 1016.0 |
| 20260503042804 | 10 | 106 | 0.0 | 0.0 | 0.00 | 0.00 | 0.00 | 87 | 1016.1 |
| 20260503042301 | 10 | 139 | 0.0 | 0.0 | 0.00 | 0.00 | 0.00 | 86 | 1016.2 |
| 20260503041756 | 10 | 163 | 1.6 | 1.6 | 0.00 | 0.00 | 0.00 | 85 | 1016.1 |
| 20260503041255 | 10 | 143 | 0.0 | 0.0 | 0.00 | 0.00 | 0.00 | 86 | 1015.8 |
| 20260503040752 | 10 | 135 | 0.0 | 0.0 | 0.00 | 0.00 | 0.00 | 87 | 1016.0 |
| 20260503040250 | 10 | 169 | 1.6 | 1.6 | 0.00 | 0.00 | 0.00 | 86 | 1015.8 |
| 20260503035746 | 10 | 209 | 1.6 | 1.6 | 0.00 | 0.46 | 0.46 | 87 | 1016.0 |
| 20260503035244 | 10 | 123 | 0.0 | 0.0 | 0.00 | 0.46 | 0.46 | 89 | 1015.9 |
| 20260503034741 | 10 | 154 | 0.0 | 1.6 | 0.00 | 0.46 | 0.46 | 88 | 1016.0 |
| 20260503034238 | 10 | 105 | 0.0 | 0.0 | 0.00 | 0.46 | 0.46 | 89 | 1015.9 |
| 20260503033735 | 10 | 133 | 1.6 | 1.6 | 0.00 | 0.46 | 0.46 | 90 | 1015.9 |
| 20260503033232 | 10 | 128 | 0.0 | 1.6 | 0.00 | 0.46 | 0.46 | 91 | 1015.9 |
| 20260503032731 | 11 | 107 | 0.0 | 0.0 | 0.00 | 0.46 | 0.46 | 92 | 1016.0 |
| 20260503032229 | 11 | 156 | 0.0 | 0.0 | 0.00 | 0.46 | 0.46 | 92 | 1015.9 |
| 20260503031725 | 11 | 141 | 0.0 | 0.0 | 0.00 | 0.46 | 0.46 | 93 | 1015.9 |
| 20260503031224 | 11 | 114 | 0.0 | 0.0 | 0.00 | 0.46 | 0.46 | 94 | 1015.9 |
| 20260503030720 | 11 | 138 | 0.0 | 0.0 | 0.00 | 0.46 | 0.46 | 94 | 1015.9 |
| 20260503030216 | 11 | 107 | 0.0 | 0.0 | 0.00 | 0.46 | 0.46 | 95 | 1015.9 |
| 20260503025713 | 11 | 122 | 0.0 | 0.0 | 0.00 | 0.46 | 0.46 | 95 | 1015.8 |
| 20260503025211 | 11 | 111 | 0.0 | 0.0 | 0.00 | 0.46 | 0.46 | 95 | 1015.9 |
| 20260503024707 | 11 | 129 | 0.0 | 0.0 | 0.00 | 0.46 | 0.46 | 95 | 1016.0 |
| 20260503024205 | 11 | 120 | 0.0 | 0.0 | 0.00 | 0.46 | 0.46 | 95 | 1016.1 |
| 20260503023701 | 11 | 128 | 0.0 | 0.0 | 0.00 | 0.46 | 0.46 | 95 | 1015.9 |
| 20260503023158 | 11 | 108 | 0.0 | 0.0 | 0.00 | 0.46 | 0.46 | 95 | 1015.9 |
| 20260503022654 | 11 | 126 | 0.0 | 0.0 | 0.00 | 0.46 | 0.46 | 96 | 1016.0 |
| 20260503022154 | 11 | 132 | 0.0 | 0.0 | 0.00 | 0.46 | 0.46 | 96 | 1015.6 |
| 20260503021651 | 11 | 141 | 0.0 | 0.0 | 0.00 | 0.46 | 0.46 | 96 | 1015.7 |
| 20260503021147 | 11 | 123 | 0.0 | 0.0 | 0.00 | 0.46 | 0.46 | 96 | 1015.9 |
| 20260503020645 | 11 | 122 | 0.0 | 0.0 | 0.00 | 0.46 | 0.46 | 95 | 1015.8 |
| 20260503020142 | 11 | 117 | 0.0 | 0.0 | 0.00 | 0.46 | 0.46 | 95 | 1015.9 |
| 20260503015639 | 11 | 128 | 0.0 | 0.0 | 0.00 | 0.46 | 0.46 | 95 | 1015.8 |
| 20260503015136 | 11 | 122 | 0.0 | 0.0 | 0.00 | 0.46 | 0.46 | 95 | 1016.1 |
| 20260503014632 | 11 | 124 | 0.0 | 0.0 | 0.00 | 0.46 | 0.46 | 95 | 1015.9 |
| 20260503014130 | 11 | 123 | 0.0 | 0.0 | 0.00 | 0.46 | 0.46 | 95 | 1015.9 |
| 20260503013627 | 11 | 153 | 0.0 | 1.6 | 0.00 | 0.46 | 0.46 | 95 | 1015.7 |
| 20260503013125 | 11 | 106 | 0.0 | 0.0 | 0.00 | 0.46 | 0.46 | 95 | 1016.1 |
| 20260503012622 | 11 | 125 | 0.0 | 0.0 | 0.00 | 0.46 | 0.46 | 95 | 1015.7 |
| 20260503012118 | 11 | 106 | 0.0 | 0.0 | 0.00 | 0.46 | 0.46 | 95 | 1015.8 |
| 20260503011615 | 11 | 112 | 0.0 | 0.0 | 0.00 | 0.46 | 0.46 | 95 | 1015.8 |
| 20260503011112 | 11 | 121 | 0.0 | 0.0 | 0.00 | 0.46 | 0.46 | 95 | 1015.4 |
| 20260503010608 | 11 | 121 | 0.0 | 0.0 | 0.00 | 0.46 | 0.46 | 95 | 1015.3 |
| 20260503010106 | 11 | 122 | 0.0 | 0.0 | 0.00 | 0.46 | 0.46 | 95 | 1015.4 |
| 20260503005602 | 11 | 124 | 0.0 | 0.0 | 0.00 | 0.46 | 0.46 | 95 | 1015.2 |
| 20260503005100 | 11 | 109 | 0.0 | 0.0 | 0.00 | 0.46 | 0.46 | 94 | 1015.3 |
| 20260503004556 | 11 | 130 | 0.0 | 0.0 | 0.00 | 0.46 | 0.46 | 94 | 1015.0 |
| 20260503004054 | 11 | 119 | 0.0 | 0.0 | 0.00 | 0.46 | 0.46 | 94 | 1015.4 |
| 20260503003550 | 11 | 110 | 0.0 | 0.0 | 0.00 | 0.46 | 0.46 | 94 | 1015.0 |
| 20260503003048 | 11 | 162 | 1.6 | 1.6 | 0.00 | 0.46 | 0.46 | 94 | 1014.8 |
| 20260503002545 | 11 | 123 | 0.0 | 1.6 | 0.00 | 0.46 | 0.46 | 94 | 1014.8 |
| 20260503002042 | 11 | 144 | 0.0 | 0.0 | 0.00 | 0.46 | 0.46 | 93 | 1014.8 |
| 20260503001538 | 11 | 106 | 0.0 | 0.0 | 0.00 | 0.46 | 0.46 | 93 | 1014.7 |
| 20260503001035 | 11 | 107 | 0.0 | 0.0 | 0.00 | 0.46 | 0.46 | 93 | 1014.8 |
| 20260503000533 | 11 | 126 | 0.0 | 0.0 | 0.00 | 0.46 | 0.46 | 93 | 1014.9 |
| 20260503000029 | 12 | 107 | 0.0 | 0.0 | 0.00 | 0.46 | 0.46 | 93 | 1014.8 |
| 20260502235526 | 12 | 96 | 0.0 | 0.0 | 0.00 | 0.46 | 0.46 | 93 | 1014.8 |
| 20260502235024 | 12 | 132 | 1.6 | 1.6 | 0.00 | 0.46 | 0.46 | 93 | 1015.0 |
| 20260502234520 | 12 | 114 | 0.0 | 0.0 | 0.00 | 0.46 | 0.46 | 92 | 1014.6 |
| 20260502234018 | 12 | 186 | 3.2 | 3.2 | 0.00 | 0.46 | 0.46 | 92 | 1014.7 |
| 20260502233513 | 11 | 111 | 0.0 | 0.0 | 0.00 | 0.46 | 0.46 | 91 | 1014.7 |
| 20260502233010 | 11 | 123 | 0.0 | 0.0 | 0.00 | 0.46 | 0.46 | 90 | 1014.7 |
| 20260502232506 | 12 | 100 | 0.0 | 0.0 | 0.00 | 0.46 | 0.46 | 90 | 1014.4 |
| 20260502232003 | 11 | 138 | 0.0 | 0.0 | 0.00 | 0.46 | 0.46 | 90 | 1014.4 |
| 20260502231500 | 12 | 134 | 1.6 | 1.6 | 0.00 | 0.46 | 0.46 | 89 | 1014.6 |
| 20260502230958 | 11 | 118 | 1.6 | 1.6 | 0.00 | 0.46 | 0.46 | 88 | 1014.4 |
| 20260502230456 | 12 | 113 | 0.0 | 0.0 | 0.00 | 0.46 | 0.46 | 88 | 1014.1 |
| 20260502225954 | 11 | 125 | 0.0 | 1.6 | 0.00 | 0.46 | 0.46 | 87 | 1014.3 |
| 20260502225449 | 11 | 107 | 0.0 | 0.0 | 0.00 | 0.46 | 0.46 | 86 | 1014.1 |
| 20260502224947 | 11 | 106 | 0.0 | 0.0 | 0.00 | 0.46 | 0.46 | 86 | 1014.3 |
| 20260502224443 | 11 | 238 | 3.2 | 3.2 | 0.00 | 0.46 | 0.46 | 86 | 1014.2 |
| 20260502223939 | 12 | 193 | 1.6 | 1.6 | 0.00 | 0.46 | 0.46 | 87 | 1014.2 |
| 20260502223438 | 12 | 135 | 1.6 | 1.6 | 0.00 | 0.46 | 0.46 | 86 | 1014.1 |
| 20260502222936 | 12 | 142 | 0.0 | 0.0 | 0.00 | 0.46 | 0.46 | 86 | 1014.4 |
| 20260502222433 | 12 | 115 | 0.0 | 0.0 | 0.00 | 0.46 | 0.46 | 86 | 1014.5 |
| 20260502221928 | 12 | 121 | 0.0 | 1.6 | 0.00 | 0.46 | 0.46 | 86 | 1014.6 |
| 20260502221425 | 12 | 113 | 1.6 | 1.6 | 0.00 | 0.46 | 0.46 | 86 | 1014.4 |
| 20260502220922 | 12 | 212 | 1.6 | 3.2 | 0.00 | 0.46 | 0.46 | 85 | 1014.3 |
| 20260502220418 | 12 | 140 | 0.0 | 1.6 | 0.00 | 0.46 | 0.46 | 85 | 1014.3 |
| 20260502215915 | 12 | 96 | 0.0 | 0.0 | 0.00 | 0.46 | 0.46 | 85 | 1014.3 |
| 20260502215412 | 12 | 240 | 3.2 | 4.8 | 0.00 | 0.46 | 0.46 | 85 | 1014.3 |
| 20260502214909 | 12 | 248 | 1.6 | 1.6 | 0.00 | 0.46 | 0.46 | 85 | 1014.4 |
| 20260502214405 | 12 | 104 | 1.6 | 1.6 | 0.00 | 0.46 | 0.46 | 85 | 1014.5 |
| 20260502213903 | 12 | 107 | 1.6 | 1.6 | 0.00 | 0.46 | 0.46 | 85 | 1014.4 |
| 20260502213400 | 12 | 210 | 4.8 | 4.8 | 0.00 | 0.46 | 0.46 | 85 | 1014.7 |
| 20260502212859 | 12 | 198 | 4.8 | 9.7 | 0.00 | 0.46 | 0.46 | 86 | 1014.4 |
| 20260502212357 | 12 | 236 | 3.2 | 4.8 | 0.00 | 0.46 | 0.46 | 86 | 1014.5 |
| 20260502211854 | 12 | 53 | 1.6 | 1.6 | 0.00 | 0.46 | 0.46 | 86 | 1014.3 |
| 20260502211349 | 12 | 357 | 3.2 | 4.8 | 0.00 | 0.46 | 0.46 | 87 | 1014.5 |
| 20260502210846 | 12 | 157 | 3.2 | 4.8 | 0.00 | 0.46 | 0.46 | 87 | 1014.3 |
| 20260502210338 | 12 | 146 | 3.2 | 3.2 | 0.00 | 0.46 | 0.46 | 86 | 1014.4 |
| 20260502205835 | 12 | 144 | 1.6 | 1.6 | 0.00 | 0.46 | 0.46 | 87 | 1014.3 |
| 20260502205330 | 12 | 103 | 1.6 | 1.6 | 0.00 | 0.46 | 0.46 | 87 | 1014.4 |
| 20260502204828 | 12 | 84 | 3.2 | 3.2 | 0.13 | 0.46 | 0.46 | 87 | 1014.5 |
| 20260502204325 | 12 | 10 | 6.4 | 9.7 | 0.13 | 0.46 | 0.46 | 86 | 1014.4 |
| 20260502203822 | 12 | 99 | 1.6 | 1.6 | 0.13 | 0.46 | 0.46 | 86 | 1014.2 |
| 20260502203320 | 11 | 158 | 1.6 | 3.2 | 0.00 | 0.43 | 0.43 | 86 | 1014.5 |
| 20260502202815 | 12 | 205 | 3.2 | 6.4 | 0.00 | 0.43 | 0.43 | 86 | 1014.3 |
| 20260502202313 | 11 | 186 | 4.8 | 4.8 | 0.00 | 0.43 | 0.43 | 86 | 1014.3 |
| 20260502201811 | 11 | 266 | 1.6 | 1.6 | 0.00 | 0.43 | 0.43 | 87 | 1014.4 |
| 20260502201306 | 12 | 97 | 4.8 | 4.8 | 0.00 | 0.43 | 0.43 | 86 | 1014.2 |
| 20260502200803 | 12 | 121 | 3.2 | 4.8 | 0.00 | 0.43 | 0.43 | 87 | 1014.2 |
| 20260502200259 | 11 | 155 | 1.6 | 1.6 | 0.00 | 0.43 | 0.43 | 86 | 1014.4 |
| 20260502195757 | 11 | 155 | 1.6 | 3.2 | 0.00 | 0.43 | 0.43 | 86 | 1014.2 |
| 20260502195253 | 11 | 133 | 3.2 | 4.8 | 0.00 | 0.43 | 0.43 | 87 | 1014.6 |
| 20260502194750 | 11 | 3 | 3.2 | 4.8 | 0.00 | 0.43 | 0.43 | 87 | 1014.7 |
| 20260502194247 | 12 | 195 | 1.6 | 3.2 | 0.00 | 0.43 | 0.43 | 88 | 1014.3 |
| 20260502193743 | 12 | 198 | 3.2 | 3.2 | 0.18 | 0.43 | 0.43 | 88 | 1014.2 |
| 20260502193240 | 12 | 118 | 0.0 | 0.0 | 0.18 | 0.43 | 0.43 | 89 | 1013.9 |
| 20260502192735 | 12 | 357 | 3.2 | 4.8 | 0.00 | 0.41 | 0.41 | 87 | 1014.4 |
| 20260502192232 | 12 | 116 | 1.6 | 3.2 | 0.00 | 0.41 | 0.41 | 87 | 1014.6 |
| 20260502191729 | 12 | 299 | 4.8 | 4.8 | 0.00 | 0.41 | 0.41 | 87 | 1015.0 |
| 20260502191227 | 12 | 236 | 3.2 | 4.8 | 0.00 | 0.41 | 0.41 | 87 | 1015.1 |
| 20260502190724 | 12 | 224 | 6.4 | 9.7 | 0.00 | 0.41 | 0.41 | 86 | 1014.9 |
| 20260502190222 | 12 | 151 | 1.6 | 3.2 | 0.00 | 0.41 | 0.41 | 86 | 1015.0 |
| 20260502185721 | 12 | 333 | 8.0 | 12.9 | 0.00 | 0.41 | 0.41 | 85 | 1014.8 |
| 20260502185218 | 12 | 230 | 1.6 | 1.6 | 0.00 | 0.41 | 0.41 | 86 | 1014.9 |
| 20260502184714 | 11 | 222 | 4.8 | 9.7 | 0.00 | 0.41 | 0.41 | 86 | 1015.0 |
| 20260502184210 | 11 | 87 | 3.2 | 3.2 | 0.00 | 0.41 | 0.41 | 87 | 1015.1 |
| 20260502183707 | 12 | 187 | 8.0 | 11.3 | 0.00 | 0.41 | 0.41 | 89 | 1015.0 |
| 20260502183203 | 12 | 138 | 1.6 | 1.6 | 0.00 | 0.41 | 0.41 | 90 | 1015.0 |
| 20260502182658 | 12 | 180 | 3.2 | 4.8 | 0.00 | 0.41 | 0.41 | 90 | 1015.2 |
| 20260502182154 | 12 | 247 | 4.8 | 6.4 | 0.00 | 0.41 | 0.41 | 90 | 1015.1 |
| 20260502181651 | 12 | 107 | 3.2 | 4.8 | 0.00 | 0.41 | 0.41 | 90 | 1015.1 |
| 20260502181150 | 12 | 22 | 4.8 | 6.4 | 0.00 | 0.41 | 0.41 | 90 | 1015.2 |
| 20260502180647 | 12 | 146 | 4.8 | 6.4 | 0.00 | 0.41 | 0.41 | 90 | 1015.0 |
| 20260502180144 | 12 | 55 | 6.4 | 9.7 | 0.00 | 0.41 | 0.41 | 90 | 1015.0 |